This is the latest recevied weather packets stored in our database for station/object DH1FR-13. If no packets are shown the sender has not sent any weather packets the latest 10 day(s).
| Time | Temp. | Humidity | Pressure | Rain* | Wind** | Luminosity | Snow |
|---|---|---|---|---|---|---|---|
| 1777047600 | 18.33° C | 51% | 1022.9 hPa | 0 mm | 0 m/s | - | - |
| 1777047001 | 18.33° C | 52% | 1022.8 hPa | 0 mm | 0 m/s | - | - |
| 1777046401 | 18.33° C | 53% | 1022.7 hPa | 0 mm | 0 m/s | - | - |
| 1777045801 | 18.33° C | 54% | 1022.9 hPa | 0 mm | 0 m/s | - | - |
| 1777045201 | 17.78° C | 53% | 1023.1 hPa | 0 mm | 0 m/s | - | - |
| 1777044601 | 18.33° C | 53% | 1023 hPa | 0 mm | 0 m/s | - | - |
| 1777044001 | 18.89° C | 53% | 1023.1 hPa | 0 mm | 0 m/s | - | - |
| 1777043401 | 18.33° C | 53% | 1023 hPa | 0 mm | 0 m/s | - | - |
| 1777042801 | 18.33° C | 54% | 1022.9 hPa | 0 mm | 0 m/s | - | - |
| 1777042201 | 17.78° C | 55% | 1023.2 hPa | 0 mm | 0 m/s | - | - |
| 1777041601 | 17.22° C | 56% | 1023.2 hPa | 0 mm | 0 m/s | - | - |
| 1777041001 | 17.22° C | 56% | 1023.4 hPa | 0 mm | 0 m/s | - | - |
| 1777040400 | 17.78° C | 57% | 1023.7 hPa | 0 mm | 0 m/s | - | - |
| 1777039800 | 17.22° C | 57% | 1023.6 hPa | 0 mm | 0 m/s | - | - |
| 1777039201 | 17.22° C | 59% | 1023.7 hPa | 0 mm | 0 m/s | - | - |
| 1777038601 | 16.67° C | 58% | 1024 hPa | 0 mm | 0 m/s | - | - |
| 1777038001 | 16.67° C | 59% | 1023.8 hPa | 0 mm | 0 m/s | - | - |
| 1777037400 | 16.11° C | 60% | 1023.9 hPa | 0 mm | 0 m/s | - | - |
| 1777036800 | 16.11° C | 59% | 1023.9 hPa | 0 mm | 0 m/s | - | - |
| 1777036201 | 15.56° C | 61% | 1024.1 hPa | 0 mm | 0 m/s | - | - |
| 1777035601 | 15.56° C | 63% | 1024.1 hPa | 0 mm | 0 m/s | - | - |
| 1777035001 | 15.56° C | 62% | 1024.3 hPa | 0 mm | 0 m/s | - | - |
| 1777034400 | 14.44° C | 63% | 1024.2 hPa | 0 mm | 0 m/s | - | - |
| 1777033800 | 15° C | 61% | 1024.3 hPa | 0 mm | 0 m/s | - | - |
| 1777033201 | 13.33° C | 66% | 1024.4 hPa | 0 mm | 0 m/s | - | - |
* Rain latest hour (hover to see other rain measurements)
** Current wind speed in m/s (hover to see current wind gust speed)